[[{"header":{"parameterUnit":"m.s-1","parameterCategory":1,"la1":30.2991,"la2":30.254,"lo1":-89.0895,"lo2":-89.0444,"dy":0.0017,"dx":0.0017,"nx":28,"ny":28,"refTime":"2024-09-03T09:00:00:Z","depth":0,"parameterNumber":2,"parameterNumberName":"U-component_of_WINDS"},"data":[0,0,0,0,0,0,0,0,0,0,0,0,0,0,0,0,0,0,0,0,0,0,0,0,0,0,0,0,0,0,0,0,0,0,0,0,0,0,0,0,0,0,0,0,0,0,0,0,0,0,0,0,0,0,0,0,0,0,-1.6443,-1.6442,0,-1.6356,-1.6355,-1.6354,-1.6249,-1.6247,-1.6246,-1.6244,-1.6157,-1.6156,-1.6155,0,0,0,0,0,0,0,0,0,0,0,0,0,-1.6516,-1.6515,-1.6443,-1.6442,-1.6441,-1.6356,-1.6355,-1.6354,-1.6249,-1.6247,-1.6245,-1.6244,-1.6157,-1.6156,-1.6155,0,0,0,0,0,0,0,0,0,0,0,0,0,-1.6463,-1.6515,-1.6443,-1.6378,-1.6372,-1.6357,-1.6355,-1.6354,-1.625,-1.6247,-1.6245,-1.6243,-1.6158,-1.6156,-1.6155,-1.6197,0,0,-1.6152,-1.6151,0,0,0,0,0,0,0,0,-1.6466,-1.646,-1.6389,-1.6383,-1.6375,-1.6311,-1.6349,-1.6301,-1.625,-1.6296,-1.6244,-1.6241,-1.621,-1.6205,-1.6194,-1.6193,-1.6189,-1.6152,-1.6151,-1.615,-1.615,0,0,0,0,0,0,0,-1.647,-1.6463,-1.6408,-1.6388,-1.638,-1.6353,-1.6343,-1.6339,-1.6268,-1.6292,-1.6284,-1.6275,-1.6206,-1.6195,-1.6191,-1.6188,-1.6152,-1.6151,-1.615,-1.6149,-1.6213,-1.6215,0,0,0,0,0,0,-1.6483,-1.6467,-1.6411,-1.6406,-1.6415,-1.6354,-1.6342,-1.6334,-1.6268,-1.6255,-1.6277,-1.6271,-1.6198,-1.6193,-1.6188,-1.6229,-1.615,-1.6149,-1.6149,-1.6211,-1.6214,-1.6216,0,0,0,0,0,0,-1.6485,-1.6479,-1.6415,-1.6434,-1.6424,-1.6355,-1.6347,-1.6334,-1.6323,-1.6257,-1.6244,-1.6279,-1.6196,-1.6189,-1.6194,-1.6225,-1.6149,-1.6148,-1.6208,-1.6212,-1.6215,-1.6315,0,0,0,0,0,0,-1.6488,-1.648,-1.6496,-1.6435,-1.6423,-1.6424,-1.6349,-1.6334,-1.6321,-1.6311,-1.6255,-1.6244,-1.6194,-1.6197,-1.6193,-1.6222,-1.6147,-1.6205,-1.6209,-1.6214,-1.6309,-1.6322,-1.6333,0,0,0,0,0,-1.649,-1.6529,-1.6498,-1.6491,-1.6442,-1.6426,-1.6419,-1.6361,-1.6324,-1.6338,-1.6295,-1.6245,-1.6222,-1.6198,-1.6193,-1.6222,-1.6203,-1.6208,-1.6213,-1.6304,-1.6319,-1.6333,0,0,0,0,0,0,-1.6597,-1.652,-1.6484,-1.6504,-1.6472,-1.6408,-1.6425,-1.638,-1.6358,-1.635,-1.6278,-1.6267,-1.628,-1.6252,-1.6226,-1.6257,-1.6205,-1.621,-1.6275,-1.629,-1.6301,-1.6307,-1.6146,0,0,0,0,0,-1.6622,-1.6616,-1.6549,-1.6574,-1.6559,-1.6495,-1.6486,-1.6444,-1.6408,-1.6394,-1.6352,-1.6319,-1.6303,-1.6295,-1.6278,-1.6304,-1.6289,-1.6321,-1.6334,-1.6344,-1.6348,-1.6356,-1.6369,-1.6234,-1.6234,-1.6234,0,0,-1.6675,-1.6633,-1.6633,-1.6594,-1.6564,-1.6558,-1.6485,-1.6483,-1.6477,-1.6394,-1.6395,-1.6363,-1.6321,-1.6336,-1.6341,-1.6313,-1.6382,-1.6351,-1.6359,-1.6358,-1.6363,-1.6376,-1.6388,-1.6238,-1.6237,-1.6236,0,0,-1.6768,-1.6737,-1.6751,-1.6723,-1.6678,-1.6634,-1.6638,-1.658,-1.6555,-1.6555,-1.6491,-1.6484,-1.646,-1.6432,-1.6414,-1.6494,-1.6446,-1.649,-1.6553,-1.6561,-1.6572,-1.6581,-1.6607,-1.6617,-1.6495,-1.6495,-1.6495,0,-1.684,-1.6829,-1.6765,-1.6766,-1.6749,-1.6672,-1.6685,-1.6661,-1.6613,-1.6603,-1.6572,-1.6538,-1.6505,-1.651,-1.6529,-1.6519,-1.6519,-1.6496,-1.6576,-1.6584,-1.6592,-1.6615,-1.6625,-1.6501,-1.65,-1.65,-1.6499,0,-1.6918,-1.6911,-1.6928,-1.6882,-1.6868,-1.6875,-1.6811,-1.6804,-1.6762,-1.6722,-1.6721,-1.6678,-1.6649,-1.6647,-1.6608,-1.6647,-1.663,-1.6589,-1.6535,-1.6611,-1.6632,-1.664,-1.6509,-1.6507,-1.6505,-1.6504,0,0,-1.7077,-1.6993,-1.7,-1.6977,-1.6921,-1.6914,-1.6917,-1.6887,-1.6881,-1.685,-1.6849,-1.6829,-1.6789,-1.677,-1.6725,-1.6734,-1.6795,-1.669,-1.6688,-1.6709,-1.6832,-1.6862,-1.6873,-1.6763,-1.6764,-1.6766,-1.6834,0,-1.7158,-1.7158,-1.7099,-1.7115,-1.7106,-1.7031,-1.7033,-1.6998,-1.696,-1.6946,-1.6904,-1.6889,-1.684,-1.6826,-1.6831,-1.6787,-1.6818,-1.6781,-1.676,-1.676,-1.6771,-1.6884,-1.6917,-1.6984,-1.6842,-1.6843,-1.6844,0,-1.7253,-1.7225,-1.724,-1.718,-1.7174,-1.7177,-1.7143,-1.7132,-1.709,-1.7061,-1.7037,-1.6986,-1.6983,-1.6932,-1.6925,-1.6901,-1.6889,-1.6865,-1.6866,-1.6861,-1.6806,-1.688,-1.7004,-1.7013,-1.6857,-1.6856,-1.6855,0,-1.7363,-1.7331,-1.7334,-1.7317,-1.7248,-1.7251,-1.7222,-1.7177,-1.7162,-1.7133,-1.7122,-1.7093,-1.7077,-1.7055,-1.6997,-1.6966,-1.6995,-1.6941,-1.697,-1.6971,-1.6979,-1.6979,-1.71,-1.6974,-1.6974,-1.6974,-1.6974,0,-1.7459,-1.7471,-1.7382,-1.7385,-1.7394,-1.7326,-1.7337,-1.7301,-1.7261,-1.7254,-1.7188,-1.7183,-1.7107,-1.7092,-1.7046,-1.7045,-1.7039,-1.7015,-1.7002,-1.7019,-1.7022,-1.7009,-1.7002,-1.6977,-1.6976,-1.6976,-1.6975,0,-1.7584,-1.7526,-1.7524,-1.7458,-1.7442,-1.7452,-1.7394,-1.7392,-1.7349,-1.734,-1.7334,-1.7267,-1.7245,-1.7185,-1.7149,-1.7118,-1.713,-1.7108,-1.7144,-1.7135,-1.7166,-1.7163,-1.7282,-1.7293,-1.7163,-1.7165,-1.7166,0,-1.7648,-1.7655,-1.7589,-1.7579,-1.7552,-1.7538,-1.7521,-1.7454,-1.7439,-1.739,-1.7393,-1.7367,-1.7342,-1.7311,-1.7258,-1.7229,-1.7204,-1.7248,-1.7199,-1.7215,-1.7201,-1.7201,-1.7199,-1.7258,-1.726,-1.7261,-1.7262,0,-1.7767,-1.7737,-1.7716,-1.7684,-1.7666,-1.7638,-1.7606,-1.7602,-1.7526,-1.7512,-1.7489,-1.747,-1.7431,-1.7405,-1.7367,-1.7336,-1.7286,-1.7278,-1.7282,-1.7299,-1.7319,-1.7306,-1.717,-1.7275,-1.7274,-1.7273,-1.7272,-1.7272,-1.7861,-1.7862,-1.7815,-1.7793,-1.7761,-1.7732,-1.7726,-1.7682,-1.7661,-1.7624,-1.7586,-1.7566,-1.752,-1.7464,-1.7436,-1.7419,-1.7393,-1.7401,-1.7402,-1.7404,-1.7411,-1.7323,-1.7412,-1.7412,-1.7411,-1.7411,-1.7411,0,-1.7974,-1.7939,-1.792,-1.7876,-1.7858,-1.7812,-1.7774,-1.7761,-1.7745,-1.7707,-1.7683,-1.7654,-1.7627,-1.7572,-1.7539,-1.7536,-1.7511,-1.7529,-1.7527,-1.752,-1.7438,-1.7436,-1.7549,-1.7549,-1.7549,-1.7549,-1.7549,-1.7549,-1.803,-1.8029,-1.7993,-1.7974,-1.7939,-1.7919,-1.79,-1.7872,-1.7841,-1.7812,-1.7789,-1.7753,-1.7706,-1.7669,-1.7641,-1.7625,-1.7615,-1.764,-1.7616,-1.754,-1.7527,-1.7514,-1.7512,-1.7639,-1.7639,-1.77,-1.77,-1.7701]},{"header":{"parameterUnit":"m.s-1","parameterCategory":1,"la1":30.2991,"la2":30.254,"lo1":-89.0895,"lo2":-89.0444,"dy":0.0017,"dx":0.0017,"nx":28,"ny":28,"refTime":"2024-09-03T09:00:00:Z","depth":0,"parameterNumber":3,"parameterNumberName":"V-component_of_WINDS"},"data":[0,0,0,0,0,0,0,0,0,0,0,0,0,0,0,0,0,0,0,0,0,0,0,0,0,0,0,0,0,0,0,0,0,0,0,0,0,0,0,0,0,0,0,0,0,0,0,0,0,0,0,0,0,0,0,0,0,0,-2.4614,-2.4614,0,-2.4605,-2.4605,-2.4605,-2.4584,-2.4583,-2.4583,-2.4583,-2.4572,-2.4572,-2.4573,0,0,0,0,0,0,0,0,0,0,0,0,0,-2.4612,-2.4612,-2.4614,-2.4614,-2.4614,-2.4605,-2.4605,-2.4605,-2.4584,-2.4583,-2.4583,-2.4582,-2.4572,-2.4572,-2.4573,0,0,0,0,0,0,0,0,0,0,0,0,0,-2.4609,-2.4612,-2.4614,-2.4602,-2.4601,-2.4605,-2.4605,-2.4605,-2.4584,-2.4583,-2.4583,-2.4582,-2.4572,-2.4572,-2.4573,-2.4587,0,0,-2.4573,-2.4573,0,0,0,0,0,0,0,0,-2.4609,-2.4609,-2.4604,-2.4603,-2.4602,-2.4595,-2.46,-2.4599,-2.4584,-2.4591,-2.4583,-2.4582,-2.458,-2.458,-2.4579,-2.4586,-2.4586,-2.4573,-2.4573,-2.4573,-2.4573,0,0,0,0,0,0,0,-2.4609,-2.4609,-2.4611,-2.4604,-2.4603,-2.4597,-2.4596,-2.46,-2.4589,-2.459,-2.4588,-2.4588,-2.458,-2.4579,-2.4579,-2.4586,-2.4573,-2.4573,-2.4574,-2.4574,-2.4602,-2.4602,0,0,0,0,0,0,-2.4611,-2.4609,-2.4611,-2.461,-2.4604,-2.4598,-2.4596,-2.4598,-2.4589,-2.4587,-2.4588,-2.4587,-2.4579,-2.4579,-2.4579,-2.4593,-2.4573,-2.4574,-2.4574,-2.4601,-2.4602,-2.4603,0,0,0,0,0,0,-2.4611,-2.4612,-2.4611,-2.4609,-2.4609,-2.4598,-2.46,-2.4598,-2.4598,-2.4588,-2.4586,-2.459,-2.4579,-2.4578,-2.4585,-2.4593,-2.4574,-2.4574,-2.46,-2.4601,-2.4602,-2.4623,0,0,0,0,0,0,-2.4611,-2.4612,-2.4617,-2.461,-2.4609,-2.4618,-2.4601,-2.4598,-2.4598,-2.4596,-2.4589,-2.4587,-2.4578,-2.4584,-2.4585,-2.4593,-2.4574,-2.46,-2.4601,-2.4602,-2.4622,-2.4625,-2.4628,0,0,0,0,0,-2.4611,-2.4624,-2.4618,-2.4618,-2.4616,-2.4618,-2.4618,-2.4608,-2.4599,-2.4604,-2.4598,-2.4587,-2.4592,-2.4585,-2.4585,-2.4593,-2.4599,-2.46,-2.4602,-2.4621,-2.4624,-2.4628,0,0,0,0,0,0,-2.4633,-2.4623,-2.4616,-2.4627,-2.4623,-2.4615,-2.4621,-2.4612,-2.4611,-2.461,-2.4597,-2.4595,-2.4603,-2.4599,-2.4592,-2.4606,-2.4594,-2.4595,-2.4608,-2.4611,-2.4614,-2.4614,-2.4574,0,0,0,0,0,-2.4639,-2.4642,-2.4633,-2.4643,-2.4642,-2.4632,-2.4633,-2.4625,-2.4621,-2.462,-2.4613,-2.461,-2.461,-2.4611,-2.4611,-2.4622,-2.4619,-2.4627,-2.463,-2.4632,-2.4633,-2.4637,-2.464,-2.4607,-2.4607,-2.4607,0,0,-2.4651,-2.4646,-2.4649,-2.4647,-2.4644,-2.4647,-2.4631,-2.4635,-2.4636,-2.462,-2.4625,-2.4621,-2.4616,-2.4624,-2.4627,-2.4621,-2.4642,-2.4634,-2.4636,-2.4636,-2.4639,-2.4642,-2.4645,-2.4608,-2.4608,-2.4608,0,0,-2.4675,-2.4672,-2.4679,-2.4676,-2.4672,-2.4665,-2.4667,-2.4659,-2.4655,-2.466,-2.4648,-2.4649,-2.4651,-2.4647,-2.4646,-2.4667,-2.4657,-2.4667,-2.4682,-2.4686,-2.4688,-2.469,-2.4697,-2.4699,-2.4669,-2.4669,-2.4669,0,-2.4691,-2.4695,-2.4684,-2.4689,-2.4688,-2.4673,-2.468,-2.4678,-2.4673,-2.4672,-2.4665,-2.4666,-2.4662,-2.4668,-2.4673,-2.4673,-2.4673,-2.4668,-2.4689,-2.4691,-2.4693,-2.4698,-2.4701,-2.467,-2.467,-2.467,-2.467,0,-2.4714,-2.4717,-2.4723,-2.4719,-2.4719,-2.4725,-2.4714,-2.4715,-2.4708,-2.4701,-2.4706,-2.47,-2.4698,-2.4699,-2.4692,-2.4704,-2.47,-2.4691,-2.4678,-2.4697,-2.4702,-2.4705,-2.4672,-2.4671,-2.4671,-2.4671,0,0,-2.4751,-2.474,-2.4743,-2.474,-2.4733,-2.4735,-2.4739,-2.4737,-2.4738,-2.4735,-2.4738,-2.4739,-2.473,-2.4728,-2.472,-2.4724,-2.4739,-2.4715,-2.4714,-2.4718,-2.4751,-2.4757,-2.4759,-2.4733,-2.4734,-2.4734,-2.4751,0,-2.4772,-2.4779,-2.4769,-2.4779,-2.478,-2.4766,-2.477,-2.4766,-2.476,-2.476,-2.4753,-2.4753,-2.4743,-2.4741,-2.4744,-2.4737,-2.4746,-2.4736,-2.4734,-2.4734,-2.4735,-2.4762,-2.4769,-2.4785,-2.4753,-2.4753,-2.4753,0,-2.4797,-2.4796,-2.4805,-2.4796,-2.4797,-2.48,-2.4797,-2.4798,-2.4792,-2.4787,-2.4785,-2.4775,-2.4778,-2.4767,-2.477,-2.4763,-2.4762,-2.4758,-2.4758,-2.4757,-2.4744,-2.476,-2.479,-2.4792,-2.4757,-2.4757,-2.4756,0,-2.4822,-2.4821,-2.4827,-2.4825,-2.4816,-2.4818,-2.4814,-2.4808,-2.4807,-2.4804,-2.4803,-2.4801,-2.4799,-2.4797,-2.4786,-2.4779,-2.479,-2.4778,-2.4785,-2.4785,-2.4787,-2.4787,-2.4816,-2.4789,-2.4789,-2.4789,-2.4788,0,-2.4845,-2.4851,-2.4837,-2.484,-2.4846,-2.4834,-2.484,-2.4835,-2.483,-2.4831,-2.4818,-2.482,-2.4806,-2.4806,-2.4798,-2.48,-2.48,-2.4795,-2.4793,-2.4796,-2.4796,-2.4794,-2.4792,-2.4789,-2.4789,-2.4789,-2.4789,0,-2.4873,-2.4864,-2.4868,-2.4859,-2.4857,-2.4861,-2.4853,-2.4855,-2.4848,-2.4849,-2.4849,-2.4838,-2.4837,-2.4826,-2.4822,-2.4817,-2.4822,-2.4818,-2.4824,-2.4822,-2.4829,-2.4828,-2.4857,-2.4859,-2.4832,-2.4832,-2.4832,0,-2.4888,-2.4892,-2.4883,-2.4883,-2.488,-2.488,-2.4879,-2.4868,-2.4867,-2.486,-2.4863,-2.486,-2.4858,-2.4856,-2.4847,-2.4844,-2.4839,-2.4849,-2.4838,-2.484,-2.4837,-2.4837,-2.4836,-2.4851,-2.4851,-2.4852,-2.4852,0,-2.4916,-2.4911,-2.491,-2.4907,-2.4906,-2.4903,-2.4899,-2.49,-2.4887,-2.4887,-2.4885,-2.4883,-2.4879,-2.4876,-2.4871,-2.4866,-2.4856,-2.4855,-2.4857,-2.4859,-2.4862,-2.4859,-2.4829,-2.4855,-2.4854,-2.4854,-2.4854,-2.4854,-2.4937,-2.4939,-2.4933,-2.4932,-2.4928,-2.4924,-2.4925,-2.4918,-2.4917,-2.4913,-2.4906,-2.4905,-2.4898,-2.4891,-2.4887,-2.4885,-2.488,-2.4882,-2.4882,-2.4882,-2.4883,-2.4863,-2.4884,-2.4884,-2.4884,-2.4884,-2.4884,0,-2.4962,-2.4958,-2.4957,-2.4952,-2.4951,-2.4942,-2.4937,-2.4937,-2.4936,-2.4931,-2.4928,-2.4926,-2.4923,-2.4914,-2.491,-2.491,-2.4905,-2.4909,-2.4908,-2.4907,-2.4889,-2.4888,-2.4913,-2.4913,-2.4913,-2.4913,-2.4913,-2.4913,-2.4976,-2.4979,-2.4973,-2.4974,-2.4969,-2.4968,-2.4966,-2.4962,-2.4958,-2.4955,-2.4953,-2.4947,-2.494,-2.4935,-2.4932,-2.4929,-2.4927,-2.4932,-2.4928,-2.4911,-2.4909,-2.4906,-2.4905,-2.4932,-2.4933,-2.4946,-2.4946,-2.4946]}]]